Regional Weather Roundup
Issued by NWS Goodland, KS

Home | Current Version | Previous Version | Graphics & Text | Print | Product List | Glossary On
Versions: 1 2 3 4 5 6 7 8 9 10 11 12 13 14 15 16 17 18 19 20 21 22 23 24 25 26 27 28 29 30 31 32 33 34 35 36 37 38 39 40 41 42 43 44 45 46 47 48 49 50
000
ASUS43 KGLD 231508
RWRGLD

GOODLAND FORECAST AREA HOURLY WEATHER ROUNDUP
NATIONAL WEATHER SERVICE GOODLAND KS
900 AM MDT SAT JUL 23 2016

...OFFICIAL OBSERVATIONS...

CITY           SKY/WX    TMP DP  RH WIND       PRES   REMARKS
GOODLAND KS    SUNNY     80  60  50 S13       29.95S
HILL CITY KS   CLOUDY    84  68  58 S13       29.88F
IMPERIAL NEB   SUNNY     78  64  61 S13       29.96S
MCCOOK NEB     LGT RAIN  76  67  73 VRB5      29.92R
AKRON CO       CLOUDY    75  62  64 W10       30.06R
BURLINGTON CO  SUNNY     79  60  52 CALM      30.00S
LIMON CO       SUNNY     86  48  26 NW9       30.11S
$$

...UNOFFICIAL OBSERVATIONS...

CITY           SKY/WX    TMP DP  RH WIND       PRES   REMARKS
COLBY KS       SUNNY     82  66  57 SE15      29.93F
LENORA KS        N/A     83  32  16 MISG        N/A
NORTON KS      SUNNY     79  64  61 S10       29.86F
$$



USA.gov is the U.S. government's official web portal to all federal, state and local government web resources and services.